Find Local Weather

World > North America > United States > Pennsylvania

Erie, Pennsylvania Regional Weather

Lat: 42.13N, Lon: 80.09W
Wx Zone: PAZ001
Feedback
Expires:201804202300;;253163
ASUS41 KPHI 202213
RWRPHI

REGIONAL WEATHER ROUNDUP
NATIONAL WEATHER SERVICE MOUNT HOLLY NJ
600 PM EDT FRI APR 20 2018

NOTE:  "FAIR" INDICATES FEW OR NO CLOUDS BELOW 12,000 FEET WITH NO
SIGNIFICANT WEATHER AND/OR OBSTRUCTIONS TO VISIBILITY.

 * = STATION DOES NOT REPORT PRECIPITATION (E.G. RAIN, SNOW, ETC.) 
        OR FOG.


PAZ001-021-NYZ056-072-MDZ011-DCZ001-202300-
OTHER NEARBY LOCATIONS
  
CITY           SKY/WX    TMP DP  RH WIND       PRES   REMARKS
HARRISBURG     FAIR      56  26  31 NW18      30.25S                  
STATE COLLEGE  SUNNY     52  21  30 NW9G21    30.30R                  
WILLIAMSPORT   FAIR      50  22  33 N14G22    30.31R                  
BINGHAMTON     PTSUNNY   37  23  56 N16G23    30.29R WCI  28          
NEW YORK CITY  FAIR      47  23  38 NW9G22    30.27R                  
BALTIMORE      FAIR      58  27  30 NW9G22    30.26R                  
WASHINGTON DC  FAIR      60  26  27 N18       30.28S                  

$$
  

SKY/WX - Weather  TMP - Temperature  DP - Dewpoint  RH - Relative Humidity
WIND - Wind Direction/Speed PRES - Barometric Pressure